Showing default

FLOCK 4G 28, 62634

Orbit data source: Space-Track

FLOCK 4G 28, 62634 is a payload satellite owned by Planet (US) in SSO that was launched on Tue, 14 Jan 2025 UTC via an FALCON 9 launch vehicle from the Air Force Western Test Range (AFWTR). Payload-class satellites include a variety of spacecraft equipped with specific instruments for various scientific and technological missions. These include communications satellites like Starlink; space stations such as the ISS; scientific satellites like the Hubble; Earth observation satellites from companies like Planet Labs, Umbra, and HawkEye 360; GPS; miniature CubeSats for education and research; and military/defense satellites.

Loading next visibility...
Identifier
62634, 2025-009AB
Orbit
SSO
Last TLE update
15 hours ago
Origin
Manufacturer
Planet
Mission
Operational Commercial Imaging
Bus & Motor
CUBESAT 3U, Unknown motor
Mass
5.7 kg wet, 5.7 kg dry
Launch date (UTC)
2025-01-14 (4 months ago)
Launch vehicle
FALCON 9
Launch site
Air Force Western Test Range (AFWTR)
Object type
Payload
Rocket body
Debris
Shape & HBR
Box + 2 Pan, 0.3 m
Radar Cross Section
0.035 m², Medium (>0.1 m² and < 1m²)

Expand to show TLE details & history

TLE from 15 hours ago
0 FLOCK 4G 28
1 62634U 25009AB  25128.67608708  .00008154  00000-0  37610-3 0  9995
2 62634  97.4333 209.6166 0002649 287.8179  72.2768 15.20499370 17285
Epoch: 2025-05-08T16:13Z
Definitive object data (Epoch: 2025-05-08T16:13:33.923Z)
Latitude
0.00004°
Longitude
99.48208°
Altitude
506.869 km
Speed
7.611 km/s
True Right ascension
13h 58m 27s
True Declination
0° 00' 00"
Sunlit
Object was in full shadow at TLE epoch
Visualization TLE readout
Latitude
66.59504°
Longitude
82.63474°
Altitude
517.274 km
Speed
7.61 km/s
Apparent Right ascension
04h 48m 27s
Apparent Declination
37° 41' 58"
Sunlit
Object is in daylight
Visualization observer readout
Local Sidereal Time
14:53:07
Azimuth
337.336° NNW
Elevation
-8.004°
Doppler factor
1
Orbital elements
Apogee altitude
503.122 km
Perigee altitude
499.477 km
Semi-major axis
6,879.437 km
Eccentricity
0.0002649
Inclination
97.4333°
RAAN
209.6166°
Arg. of periapsis
287.8179°
True anomaly
72.30572°
Mean anomaly
72.2768°
Eccentric anomaly
72.29126°
Mean motion
3.80377 °/min
BSTAR
0.0003761
Orbital period
94.64 mins
Loading maneuver chart data...
Loading SW <> Apogee altitude chart data...
Loading historical data...
Loading historical data...
Loading historical data...
Loading historical data...
Loading historical data...
Loading historical data...
Loading historical data...

FLOCK 4G 28 Visibility forecast

Observer location: undefined°, undefined°

Span
Click to sort rows by Start time (UTC) header in descending order
Start Az.
Max El. time (UTC)
Max El. Az.
Max El.
End time (UTC)
End Az.
7 mins2025-05-09 18:03:14.234Z18.615° NNE2025-05-09 18:06:14.234Z60.477° ENE40.413°2025-05-09 18:10:14.234Z183.43° SSW
4 mins2025-05-10 04:43:14.234Z98.752° ESE2025-05-10 04:44:14.234Z73.57° E22.7°2025-05-10 04:47:14.234Z16.161° NNE
|